Change the Weather History Date:

Monday, October 8, 2012

  Actual Average (KHVN) Record (KHVN)
Temperature  
Mean Temperature 46 °F -  
Max Temperature 53 °F 63 °F 84 °F (1990)
Min Temperature 39 °F 47 °F 35 °F (1999)
Degree Days  
Heating Degree Days 19    
Moisture  
Dew Point 43 °F    
Average Humidity 84    
Maximum Humidity 100    
Minimum Humidity 58    
Precipitation  
Precipitation 0.00 in - - ()
Sea Level Pressure  
Sea Level Pressure 30.22 in    
Wind  
Wind Speed 2 mph (NNW)    
Max Wind Speed 12 mph    
Max Gust Speed -    
Visibility 10 miles    
Events      
Averages and records for this station are not official NWS values.
T = Trace of Precipitation, MM = Missing Value Source: NWS Daily Summary

Daily Weather History Graph

Daily Weather History Graph

Search for Another Location

Airport or City:

Trip Planner

Search our weather history database for the weather conditions in past years. The results will help you decide how hot, cold, wet, or windy it might be!

Date:

Astronomy

Oct. 08, 2012 Rise Set
Actual Time 6:54 AM EDT 6:19 PM EDT
Civil Twilight 6:27 AM EDT 6:47 PM EDT
Nautical Twilight 5:54 AM EDT 7:19 PM EDT
Astronomical Twilight 5:22 AM EDT 7:51 PM EDT
Moon No Moon Rise 2:11 PM EDT (10/8)
Length of Visible Light 12h 20m
Length of Day
11h 24m
Waning Gibbous, 46% of the Moon is Illuminated
Oct 8
Waning Gibbous
Oct 15
New
Oct 21
First Quarter
Oct 29
Full
Nov 6
Last Quarter

Hourly Weather History & Observations

Time (EDT) Temp. Windchill Dew Point Humidity Pressure Visibility Wind Dir Wind Speed Gust Speed Precip Events Conditions
12:15 AM 46.4 °F 45.2 °F 44.6 °F 93% 30.10 in 10.0 mi NW 3.5 mph - N/A   Clear
12:35 AM 46.4 °F - 46.4 °F 100% 30.10 in 10.0 mi Calm Calm - N/A   Mostly Cloudy
12:55 AM 46.4 °F - 44.6 °F 93% 30.10 in 10.0 mi Calm Calm - N/A   Scattered Clouds
1:15 AM 44.6 °F 43.1 °F 44.6 °F 100% 30.10 in 10.0 mi NW 3.5 mph - N/A   Clear
1:35 AM 44.6 °F - 44.6 °F 100% 30.10 in 10.0 mi Calm Calm - N/A   Clear
1:55 AM 44.6 °F - 44.6 °F 100% 30.10 in 10.0 mi Calm Calm - N/A   Clear
2:15 AM 44.6 °F 42.2 °F 44.6 °F 100% 30.09 in 10.0 mi NW 4.6 mph - N/A   Clear
2:35 AM 42.8 °F - 42.8 °F 100% 30.10 in 10.0 mi Calm Calm - N/A   Clear
2:55 AM 42.8 °F - 42.8 °F 100% 30.10 in 10.0 mi Calm Calm - N/A   Clear
3:15 AM 42.8 °F 41.1 °F 42.8 °F 100% 30.11 in 10.0 mi NW 3.5 mph - N/A   Clear
3:35 AM 42.8 °F 41.1 °F 42.8 °F 100% 30.12 in 10.0 mi NW 3.5 mph - N/A   Clear
3:55 AM 42.8 °F - 42.8 °F 100% 30.12 in 10.0 mi Calm Calm - N/A   Clear
4:15 AM 42.8 °F 41.1 °F 41.0 °F 93% 30.13 in 2.5 mi NW 3.5 mph - N/A   Clear
4:35 AM 41.0 °F - 41.0 °F 100% 30.13 in 9.0 mi Calm Calm - N/A   Clear
4:55 AM 41.0 °F - 41.0 °F 100% 30.14 in 10.0 mi Calm Calm - N/A   Clear
5:35 AM 41.0 °F - 39.2 °F 93% 30.14 in 10.0 mi Calm Calm - N/A   Clear
5:55 AM 39.2 °F - 39.2 °F 100% 30.15 in 1.0 mi Calm Calm - N/A   Clear
6:15 AM 39.2 °F - 39.2 °F 100% 30.17 in 8.0 mi North - - N/A   Clear
6:35 AM 39.2 °F 37.0 °F 39.2 °F 100% 30.18 in 5.0 mi WNW 3.5 mph - N/A   Clear
6:55 AM 39.2 °F - 39.2 °F 100% 30.18 in 5.0 mi Calm Calm - N/A   Clear
7:15 AM 42.8 °F - 42.8 °F 100% 30.19 in 9.0 mi Calm Calm - N/A   Clear
7:35 AM 42.8 °F - 42.8 °F 100% 30.21 in 10.0 mi Calm Calm - N/A   Clear
7:55 AM 44.6 °F 42.2 °F 42.8 °F 93% 30.22 in 10.0 mi NNW 4.6 mph - N/A   Clear
8:15 AM 46.4 °F 43.5 °F 42.8 °F 87% 30.23 in 10.0 mi NNW 5.8 mph - N/A   Clear
8:35 AM 48.2 °F - 42.8 °F 82% 30.24 in 10.0 mi NNW 5.8 mph - N/A   Clear
8:55 AM 50.0 °F - 42.8 °F 76% 30.25 in 10.0 mi North 5.8 mph - N/A   Clear
9:15 AM 50.0 °F - 41.0 °F 71% 30.25 in 10.0 mi NNW 8.1 mph - N/A   Clear
9:35 AM 51.8 °F - 41.0 °F 67% 30.25 in 10.0 mi North 6.9 mph - N/A   Partly Cloudy
9:55 AM 50.0 °F - 39.2 °F 66% 30.25 in 10.0 mi NNW 11.5 mph - N/A   Partly Cloudy
10:15 AM 51.8 °F - 39.2 °F 62% 30.25 in 10.0 mi NNW 8.1 mph - N/A   Clear
10:35 AM 51.8 °F - 39.2 °F 62% 30.26 in 10.0 mi NNE 6.9 mph - N/A   Clear
10:55 AM 51.8 °F - 39.2 °F 62% 30.25 in 7.0 mi NNE 5.8 mph - N/A   Partly Cloudy
11:15 AM 53.6 °F - 39.2 °F 58% 30.25 in 9.0 mi NNE 8.1 mph - N/A   Partly Cloudy
11:35 AM 53.6 °F - 41.0 °F 62% 30.24 in 8.0 mi NW 10.4 mph - N/A   Partly Cloudy
11:55 AM 53.6 °F - 39.2 °F 58% 30.25 in 10.0 mi NNE 5.8 mph - N/A   Scattered Clouds
12:15 PM 53.6 °F - 39.2 °F 58% 30.25 in 10.0 mi North 5.8 mph - N/A   Partly Cloudy
12:35 PM 53.6 °F - 39.2 °F 58% 30.25 in 10.0 mi NW 3.5 mph - N/A   Clear
1:15 PM 53.6 °F - 39.2 °F 58% 30.26 in 10.0 mi NE 3.5 mph - N/A   Mostly Cloudy
1:55 PM 53.6 °F - 41.0 °F 62% 30.27 in 10.0 mi West 3.5 mph - N/A   Mostly Cloudy
2:15 PM 53.6 °F - 39.2 °F 58% 30.26 in 10.0 mi NNW 3.5 mph - N/A   Scattered Clouds
2:35 PM 53.6 °F - 39.2 °F 58% 30.26 in 10.0 mi Calm Calm - N/A   Partly Cloudy
2:55 PM 53.6 °F - 41.0 °F 62% 30.25 in 10.0 mi NNW 4.6 mph - N/A   Mostly Cloudy
3:35 PM 53.6 °F - 39.2 °F 58% 30.24 in 10.0 mi Calm Calm - N/A   Partly Cloudy
3:55 PM 53.6 °F - 41.0 °F 62% 30.25 in 10.0 mi NNW 3.5 mph - N/A   Mostly Cloudy
4:15 PM 53.6 °F - 41.0 °F 62% 30.26 in 10.0 mi Calm Calm - N/A   Scattered Clouds
4:35 PM 53.6 °F - 42.8 °F 67% 30.27 in 10.0 mi Calm Calm - N/A   Scattered Clouds
4:55 PM 53.6 °F - 42.8 °F 67% 30.26 in 10.0 mi Calm Calm - N/A   Scattered Clouds
5:15 PM 51.8 °F - 44.6 °F 76% 30.28 in 10.0 mi Calm Calm - N/A   Scattered Clouds
5:35 PM 51.8 °F - 46.4 °F 82% 30.29 in 10.0 mi Calm Calm - N/A   Scattered Clouds
5:55 PM 51.8 °F - 46.4 °F 82% 30.30 in 10.0 mi Calm Calm - N/A   Mostly Cloudy
6:15 PM 51.8 °F - 44.6 °F 76% 30.29 in 10.0 mi Calm Calm - N/A   Scattered Clouds
6:35 PM 50.0 °F - 46.4 °F 87% 30.29 in 10.0 mi Calm Calm - N/A   Clear
6:55 PM 50.0 °F - 48.2 °F 94% 30.28 in 10.0 mi Calm Calm - N/A   Clear
7:15 PM 48.2 °F - 48.2 °F 100% 30.27 in 10.0 mi Calm Calm - N/A   Partly Cloudy
7:35 PM 48.2 °F - 48.2 °F 100% 30.29 in 10.0 mi Calm Calm - N/A   Partly Cloudy
7:55 PM 50.0 °F - 46.4 °F 87% 30.28 in 10.0 mi Calm Calm - N/A   Scattered Clouds
8:15 PM 48.2 °F - 46.4 °F 93% 30.29 in 10.0 mi Calm Calm - N/A   Clear
8:35 PM 48.2 °F - 46.4 °F 93% 30.28 in 10.0 mi Calm Calm - N/A   Clear
8:55 PM 48.2 °F - 46.4 °F 93% 30.28 in 10.0 mi Calm Calm - N/A   Clear
9:15 PM 48.2 °F - 46.4 °F 93% 30.27 in 10.0 mi Calm Calm - N/A   Clear
9:35 PM 48.2 °F - 46.4 °F 93% 30.29 in 10.0 mi NW 3.5 mph - N/A   Clear
9:55 PM 48.2 °F - 46.4 °F 93% 30.27 in 10.0 mi Calm Calm - N/A   Clear
10:15 PM 48.2 °F - 46.4 °F 93% 30.28 in 10.0 mi Calm Calm - N/A   Clear
10:35 PM 48.2 °F - 46.4 °F 93% 30.28 in 10.0 mi NNW 3.5 mph - N/A   Clear
10:55 PM 48.2 °F - 46.4 °F 93% 30.28 in 10.0 mi Calm Calm - N/A   Clear
11:15 PM 48.2 °F - 46.4 °F 93% 30.26 in 10.0 mi North 3.5 mph - N/A   Clear
11:55 PM 48.2 °F - 44.6 °F 87% 30.26 in 10.0 mi Calm Calm - N/A   Clear